TimeEST,TemperatureF,Dew PointF,Humidity,Sea Level PressureIn,VisibilityMPH,Wind Direction,Wind SpeedMPH,Gust SpeedMPH,PrecipitationIn,Events,Conditions,WindDirDegrees,DateUTC
12:54 AM,23.0,5.0,46,30.02,10.0,NNW,19.6,27.6,N/A,,Clear,340,2013-02-17 05:54:00
1:54 AM,21.9,3.9,46,30.02,10.0,NNW,17.3,26.5,N/A,,Clear,340,2013-02-17 06:54:00
2:54 AM,21.9,5.0,48,30.03,10.0,NW,15.0,27.6,N/A,,Overcast,320,2013-02-17 07:54:00
3:54 AM,21.0,5.0,50,30.02,10.0,NW,25.3,34.5,N/A,,Mostly Cloudy,320,2013-02-17 08:54:00
4:54 AM,21.0,3.9,48,30.04,10.0,NNW,25.3,31.1,N/A,,Scattered Clouds,330,2013-02-17 09:54:00
5:54 AM,21.0,3.9,48,30.06,10.0,NNW,21.9,27.6,N/A,,Clear,330,2013-02-17 10:54:00
6:54 AM,21.0,5.0,50,30.08,10.0,NNW,19.6,32.2,N/A,,Scattered Clouds,330,2013-02-17 11:54:00
7:54 AM,21.9,6.1,51,30.10,10.0,NW,15.0,33.4,N/A,,Scattered Clouds,320,2013-02-17 12:54:00
8:54 AM,25.0,7.0,46,30.13,10.0,NNW,17.3,28.8,N/A,,Mostly Cloudy,330,2013-02-17 13:54:00
9:54 AM,27.0,6.1,41,30.13,10.0,NNW,25.3,38.0,N/A,,Clear,340,2013-02-17 14:54:00
10:54 AM,28.9,6.1,38,30.15,10.0,NNW,23.0,34.5,N/A,,Clear,340,2013-02-17 15:54:00
11:54 AM,30.9,5.0,33,30.15,10.0,North,18.4,39.1,N/A,,Clear,350,2013-02-17 16:54:00
12:54 PM,33.1,3.9,29,30.13,10.0,NNW,25.3,33.4,N/A,,Clear,340,2013-02-17 17:54:00
1:54 PM,35.1,3.9,27,30.12,10.0,NNW,19.6,28.8,N/A,,Clear,340,2013-02-17 18:54:00
2:54 PM,36.0,5.0,27,30.12,10.0,NW,13.8,26.5,N/A,,Clear,310,2013-02-17 19:54:00
3:54 PM,37.0,3.9,25,30.14,10.0,NW,19.6,27.6,N/A,,Clear,320,2013-02-17 20:54:00
4:54 PM,35.1,3.9,27,30.15,10.0,NW,13.8,23.0,N/A,,Clear,320,2013-02-17 21:54:00
5:54 PM,33.1,3.9,29,30.18,10.0,NNW,8.1,-,N/A,,Clear,340,2013-02-17 22:54:00
6:54 PM,30.2,5.0,34,30.15,10.0,NW,8.1,-,N/A,,Clear,320,2013-02-17 23:54:00
7:54 PM,28.9,6.1,38,30.22,10.0,NW,5.8,-,N/A,,Clear,320,2013-02-18 00:54:00
8:54 PM,28.0,7.0,41,30.23,10.0,Calm,Calm,-,N/A,,Clear,0,2013-02-18 01:54:00
9:54 PM,26.1,8.1,47,30.24,10.0,Calm,Calm,-,N/A,,Clear,0,2013-02-18 02:54:00
10:54 PM,25.0,12.0,58,30.25,10.0,Calm,Calm,-,N/A,,Clear,0,2013-02-18 03:54:00
11:54 PM,24.1,9.0,53,30.25,10.0,Calm,Calm,-,N/A,,Clear,0,2013-02-18 04:54:00